KC4YVA Weather Reports


time (UTC)temp
F
wind
direction
speed
knots
gust
knots
rain 1hr
in
rain 24hr
in
rain mn
in
humidity
%
barometer
mb
20260510190505 88 217 0.0 0.0 0.00 0.00 0.00 21 1012.3
20260510185504 87 269 0.0 0.0 0.00 0.00 0.00 20 1012.4
20260510185005 87 273 0.0 0.9 0.00 0.00 0.00 20 1012.5
20260510184505 87 149 0.0 2.6 0.00 0.00 0.00 20 1012.4
20260510184005 87 243 0.0 0.0 0.00 0.00 0.00 22 1012.4
20260510183504 87 255 0.0 0.9 0.00 0.00 0.00 23 1012.4
20260510183004 87 250 0.0 0.0 0.00 0.00 0.00 21 1012.4
20260510182505 87 231 0.0 1.7 0.00 0.00 0.00 22 1012.4
20260510182005 86 231 0.0 0.9 0.00 0.00 0.00 22 1012.5
20260510181505 86 242 0.0 0.0 0.00 0.00 0.00 19 1012.6
20260510181004 86 249 0.0 0.9 0.00 0.00 0.00 21 1012.7
20260510180504 86 317 0.0 0.9 0.00 0.00 0.00 21 1012.8
20260510180005 87 118 0.0 0.9 0.00 0.00 0.00 21 1012.8
20260510175005 88 274 0.0 0.0 0.00 0.00 0.00 22 1012.8
20260510174504 87 270 0.0 0.0 0.00 0.00 0.00 22 1012.8
20260510174004 86 293 0.0 0.0 0.00 0.00 0.00 23 1012.7
20260510173005 86 175 0.0 0.0 0.00 0.00 0.00 22 1012.6
20260510172504 85 317 0.0 0.0 0.00 0.00 0.00 24 1012.7
20260510172004 85 213 0.0 0.9 0.00 0.00 0.00 27 1012.8
20260510171504 84 202 0.0 0.0 0.00 0.00 0.00 27 1013.0
20260510170505 85 204 0.0 0.9 0.00 0.00 0.00 25 1013.0
20260510170005 84 191 0.0 0.9 0.00 0.00 0.00 27 1013.1
20260510165505 84 176 0.0 0.0 0.00 0.00 0.00 29 1013.1
20260510164504 84 233 0.0 0.0 0.00 0.00 0.00 28 1013.1
20260510163505 85 196 0.0 0.0 0.00 0.00 0.00 27 1013.2
20260510163005 84 216 0.0 0.0 0.00 0.00 0.00 27 1013.1
20260510162504 84 229 0.0 0.0 0.00 0.00 0.00 24 1013.2
20260510162004 83 188 0.0 0.0 0.00 0.00 0.00 24 1013.3
20260510161504 83 351 0.0 0.0 0.00 0.00 0.00 27 1013.3
20260510161004 83 233 0.0 0.0 0.00 0.00 0.00 28 1013.3
20260510160505 82 233 0.0 0.0 0.00 0.00 0.00 31 1013.3
20260510160004 82 233 0.0 0.0 0.00 0.00 0.00 31 1013.4
20260510155504 81 233 0.0 0.0 0.00 0.00 0.00 33 1013.4
20260510154505 79 200 0.0 0.0 0.00 0.00 0.00 33 1013.6
20260510154005 79 200 0.0 0.0 0.00 0.00 0.00 32 1013.6
20260510153004 78 16 0.0 0.0 0.00 0.00 0.00 32 1013.7
20260510152005 78 31 0.0 0.0 0.00 0.00 0.00 34 1013.8
20260510151504 78 8 0.0 0.0 0.00 0.00 0.00 33 1013.9
20260510151004 77 359 0.0 0.0 0.00 0.00 0.00 35 1013.9
20260510150504 77 349 0.0 0.0 0.00 0.00 0.00 37 1013.8
20260510145505 77 349 0.0 0.0 0.00 0.00 0.00 34 1013.8
20260510145004 76 218 0.0 0.0 0.00 0.00 0.00 34 1013.7
20260510144504 76 216 0.0 0.0 0.00 0.00 0.00 38 1013.7
20260510144004 76 212 0.0 0.0 0.00 0.00 0.00 38 1013.6
20260510143005 75 214 0.0 0.0 0.00 0.00 0.00 42 1013.6
20260510142504 74 190 0.0 0.0 0.00 0.00 0.00 42 1013.6
20260510142005 73 132 0.0 0.0 0.00 0.00 0.00 47 1013.5
20260510141504 73 133 0.0 0.0 0.00 0.00 0.00 48 1013.6
20260510141005 72 198 0.0 0.0 0.00 0.00 0.00 52 1013.6
20260510140504 71 198 0.0 0.0 0.00 0.00 0.00 49 1013.5
20260510140004 70 166 0.0 0.0 0.00 0.00 0.00 51 1013.5
20260510135504 70 166 0.0 0.0 0.00 0.00 0.00 55 1013.4
20260510135004 70 166 0.0 0.0 0.00 0.00 0.00 53 1013.4
20260510134504 69 166 0.0 0.0 0.00 0.00 0.00 57 1013.4
20260510134004 69 166 0.0 0.0 0.00 0.00 0.00 57 1013.5
20260510133505 69 166 0.0 0.0 0.00 0.00 0.00 57 1013.6
20260510133004 68 167 0.0 0.9 0.00 0.00 0.00 60 1013.7
20260510132504 67 191 0.0 0.0 0.00 0.00 0.00 64 1013.8
20260510132004 67 197 0.0 0.0 0.00 0.00 0.00 64 1013.6
20260510131505 66 331 0.0 0.0 0.00 0.00 0.00 66 1013.5
20260510131004 65 331 0.0 0.0 0.00 0.00 0.00 70 1013.4
20260510130504 64 202 0.0 0.0 0.00 0.00 0.00 71 1013.3
20260510125504 63 217 0.0 0.0 0.00 0.00 0.00 80 1013.4
20260510125004 62 217 0.0 0.0 0.00 0.00 0.00 80 1013.3
20260510124504 61 217 0.0 0.0 0.00 0.00 0.00 82 1013.4
20260510123505 60 217 0.0 0.0 0.00 0.00 0.00 83 1013.3
20260510123004 60 238 0.0 0.0 0.00 0.00 0.00 83 1013.2
20260510122004 59 238 0.0 0.0 0.00 0.00 0.00 83 1013.0
20260510121503 59 238 0.0 0.0 0.00 0.00 0.00 83 1013.0
20260510121004 58 238 0.0 0.0 0.00 0.00 0.00 83 1012.9
20260510120504 58 238 0.0 0.0 0.00 0.00 0.00 83 1013.0
20260510120005 58 238 0.0 0.0 0.00 0.00 0.00 83 1012.9
20260510115504 57 238 0.0 0.0 0.00 0.00 0.00 83 1012.9
20260510115005 57 238 0.0 0.0 0.00 0.00 0.00 82 1012.7
20260510114504 57 238 0.0 0.0 0.00 0.00 0.00 82 1012.7
20260510114003 57 238 0.0 0.0 0.00 0.00 0.00 82 1012.7
20260510113504 56 238 0.0 0.0 0.00 0.00 0.00 82 1012.5
20260510113004 56 238 0.0 0.0 0.00 0.00 0.00 82 1012.4
20260510112504 56 238 0.0 0.0 0.00 0.00 0.00 81 1012.3
20260510112004 56 238 0.0 0.0 0.00 0.00 0.00 81 1012.2
20260510111505 56 238 0.0 0.0 0.00 0.00 0.00 81 1012.2
20260510110504 56 238 0.0 0.0 0.00 0.00 0.00 81 1012.0
20260510110004 56 238 0.0 0.0 0.00 0.00 0.00 81 1011.9
20260510105504 56 238 0.0 0.0 0.00 0.00 0.00 81 1011.9
20260510104503 56 238 0.0 0.0 0.00 0.00 0.00 81 1011.9
20260510104004 57 238 0.0 0.0 0.00 0.00 0.00 81 1011.7
20260510103504 57 238 0.0 0.0 0.00 0.00 0.00 81 1011.7
20260510103004 57 238 0.0 0.0 0.00 0.00 0.00 81 1011.6
20260510102504 57 238 0.0 0.0 0.00 0.00 0.00 81 1011.6
20260510102004 57 238 0.0 0.0 0.00 0.00 0.00 81 1011.5
20260510101504 57 238 0.0 0.0 0.00 0.00 0.00 80 1011.4
20260510101003 57 238 0.0 0.0 0.00 0.00 0.00 80 1011.4
20260510100504 57 238 0.0 0.0 0.00 0.00 0.00 80 1011.2
20260510100004 57 238 0.0 0.0 0.00 0.00 0.00 80 1011.1
20260510095504 57 238 0.0 0.0 0.00 0.00 0.00 80 1011.1
20260510095004 58 238 0.0 0.0 0.00 0.00 0.00 81 1011.0
20260510094504 58 238 0.0 0.0 0.00 0.00 0.00 80 1011.0
20260510094004 58 238 0.0 0.0 0.00 0.00 0.00 80 1011.0
20260510093504 58 238 0.0 0.0 0.00 0.00 0.00 80 1011.0
20260510093004 58 238 0.0 0.0 0.00 0.00 0.00 80 1010.9
20260510092504 58 238 0.0 0.0 0.00 0.00 0.00 80 1010.9
20260510092003 58 238 0.0 0.0 0.00 0.00 0.00 80 1010.9
20260510091504 58 238 0.0 0.0 0.00 0.00 0.00 80 1010.9
20260510091004 58 238 0.0 0.0 0.00 0.00 0.00 80 1010.8
20260510090504 59 238 0.0 0.0 0.00 0.00 0.00 80 1010.7
20260510090003 59 238 0.0 0.0 0.00 0.00 0.00 79 1010.6
20260510085504 59 238 0.0 0.0 0.00 0.00 0.00 80 1010.6
20260510085005 59 238 0.0 0.0 0.00 0.00 0.00 80 1010.6
20260510084504 59 238 0.0 0.0 0.00 0.00 0.00 80 1010.6
20260510084004 59 238 0.0 0.0 0.00 0.00 0.00 80 1010.7
20260510083504 60 238 0.0 0.0 0.00 0.00 0.00 80 1010.6
20260510083004 60 238 0.0 0.0 0.00 0.00 0.00 79 1010.6
20260510082504 60 238 0.0 0.0 0.00 0.00 0.00 79 1010.7
20260510082004 60 238 0.0 0.0 0.00 0.00 0.00 79 1010.6
20260510081504 60 238 0.0 0.0 0.00 0.00 0.00 79 1010.5
20260510081003 60 238 0.0 0.0 0.00 0.00 0.00 79 1010.5
20260510080503 60 238 0.0 0.0 0.00 0.00 0.00 79 1010.5
20260510080004 60 238 0.0 0.0 0.00 0.00 0.00 78 1010.4
20260510075504 60 238 0.0 0.0 0.00 0.00 0.00 78 1010.4
20260510075004 61 238 0.0 0.0 0.00 0.00 0.00 78 1010.3
20260510074504 61 238 0.0 0.0 0.00 0.00 0.00 78 1010.3
20260510074004 61 238 0.0 0.0 0.00 0.00 0.00 78 1010.2
20260510073504 61 238 0.0 0.0 0.00 0.00 0.00 78 1010.2
20260510072004 61 238 0.0 0.0 0.00 0.00 0.00 77 1010.2
20260510071503 61 238 0.0 0.0 0.00 0.00 0.00 77 1010.2
20260510070504 61 238 0.0 0.0 0.00 0.00 0.00 77 1010.1
20260510070005 62 238 0.0 0.0 0.00 0.00 0.00 77 1010.2
20260510065503 62 238 0.0 0.0 0.00 0.00 0.00 77 1010.2
20260510065004 62 238 0.0 0.0 0.00 0.00 0.00 77 1010.1
20260510062504 62 238 0.0 0.0 0.00 0.00 0.00 77 1010.2
20260510062004 62 238 0.0 0.0 0.00 0.00 0.00 77 1010.3
20260510061504 62 238 0.0 0.0 0.00 0.00 0.00 77 1010.2
20260510061004 62 247 0.0 0.0 0.00 0.00 0.00 77 1010.4
20260510060503 62 260 0.0 0.0 0.00 0.00 0.00 76 1010.4
20260510060004 62 260 0.0 0.0 0.00 0.00 0.00 76 1010.3
20260510055504 62 260 0.0 0.0 0.00 0.00 0.00 76 1010.2
20260510054504 62 260 0.0 0.0 0.00 0.00 0.00 76 1010.4
20260510054004 61 260 0.0 0.0 0.00 0.00 0.00 76 1010.4
20260510053504 61 260 0.0 0.0 0.00 0.00 0.00 76 1010.4
20260510053003 61 260 0.0 0.0 0.00 0.00 0.00 76 1010.4
20260510052504 61 260 0.0 0.0 0.00 0.00 0.00 75 1010.5
20260510052004 61 260 0.0 0.0 0.00 0.00 0.00 75 1010.5
20260510051003 62 260 0.0 0.0 0.00 0.00 0.00 75 1010.6
20260510050015 62 260 0.0 0.0 0.00 0.00 0.00 74 1010.5
20260510045515 62 260 0.0 0.0 0.00 0.00 0.00 74 1010.6
20260510045015 62 260 0.0 0.0 0.00 0.00 0.00 74 1010.6
20260510044515 62 260 0.0 0.0 0.00 0.00 0.00 73 1010.6
20260510043516 62 260 0.0 0.0 0.00 0.00 0.00 73 1010.5
20260510043016 62 260 0.0 0.0 0.00 0.00 0.00 73 1010.6
20260510042015 62 260 0.0 0.0 0.00 0.00 0.00 73 1010.5
20260510041516 62 260 0.0 0.0 0.00 0.00 0.00 73 1010.5
20260510041015 62 260 0.0 0.0 0.00 0.00 0.00 72 1010.4
20260510040515 62 260 0.0 0.0 0.00 0.00 0.00 72 1010.3
20260510040015 62 260 0.0 0.0 0.00 0.00 0.00 72 1010.4
20260510035015 63 260 0.0 0.0 0.00 0.00 0.00 72 1010.3
20260510034515 63 260 0.0 0.0 0.00 0.00 0.00 72 1010.3
20260510034016 63 260 0.0 0.0 0.00 0.00 0.00 72 1010.3
20260510033516 63 260 0.0 0.0 0.00 0.00 0.00 72 1010.3
20260510033015 63 260 0.0 0.0 0.00 0.00 0.00 71 1010.2
20260510032515 63 260 0.0 0.0 0.00 0.00 0.00 71 1010.1
20260510032016 63 260 0.0 0.0 0.00 0.00 0.00 71 1010.2
20260510031516 63 260 0.0 0.0 0.00 0.00 0.00 71 1010.2
20260510031015 63 260 0.0 0.0 0.00 0.00 0.00 71 1010.1
20260510030515 63 260 0.0 0.0 0.00 0.00 0.00 70 1010.1
20260510030015 63 260 0.0 0.0 0.00 0.00 0.00 70 1010.0
20260510025515 63 260 0.0 0.0 0.00 0.00 0.00 70 1010.1
20260510025015 63 260 0.0 0.0 0.00 0.00 0.00 70 1009.9
20260510024516 63 260 0.0 0.0 0.00 0.00 0.00 70 1010.0
20260510024015 64 260 0.0 0.0 0.00 0.00 0.00 69 1010.0
20260510023515 64 260 0.0 0.0 0.00 0.00 0.00 69 1009.9
20260510022515 64 260 0.0 0.0 0.00 0.00 0.00 68 1009.8
20260510022015 64 260 0.0 0.0 0.00 0.00 0.00 68 1009.8
20260510021515 64 260 0.0 0.0 0.00 0.00 0.00 68 1009.7
20260510021016 64 260 0.0 0.0 0.00 0.00 0.00 67 1009.7
20260510020515 65 260 0.0 0.0 0.00 0.00 0.00 67 1009.6
20260510020015 65 260 0.0 0.0 0.00 0.00 0.00 67 1009.4
20260510015515 65 260 0.0 0.0 0.00 0.00 0.00 66 1009.4
20260510015015 65 260 0.0 0.0 0.00 0.00 0.00 66 1009.2
20260510014515 65 260 0.0 0.0 0.00 0.00 0.00 66 1009.3
20260510014015 65 260 0.0 0.0 0.00 0.00 0.00 65 1009.2
20260510013515 65 260 0.0 0.0 0.00 0.00 0.00 65 1009.2
20260510013015 66 260 0.0 0.0 0.00 0.00 0.00 65 1009.2
20260510012015 66 260 0.0 0.0 0.00 0.00 0.00 64 1009.0
20260510011515 66 260 0.0 0.0 0.00 0.00 0.00 64 1009.1
20260510011015 66 260 0.0 0.0 0.00 0.00 0.00 64 1009.0
20260510010515 66 260 0.0 0.0 0.00 0.00 0.00 63 1008.9
20260510010015 67 260 0.0 0.0 0.00 0.00 0.00 63 1008.9
20260510005515 67 260 0.0 0.0 0.00 0.00 0.00 62 1009.0
20260510005015 67 260 0.0 0.0 0.00 0.00 0.00 61 1008.9
20260510004515 68 260 0.0 0.0 0.00 0.00 0.00 61 1008.8
20260510004015 68 260 0.0 0.0 0.00 0.00 0.00 60 1008.7
20260510003515 68 260 0.0 0.0 0.00 0.00 0.00 59 1008.7
20260510003015 68 260 0.0 0.0 0.00 0.00 0.00 58 1008.7
20260510002516 69 260 0.0 0.0 0.00 0.00 0.00 57 1008.6
20260510002015 69 260 0.0 0.0 0.00 0.00 0.00 56 1008.5
20260510001515 69 260 0.0 0.0 0.00 0.00 0.00 56 1008.4
20260510000516 70 260 0.0 0.0 0.00 0.00 0.00 55 1008.3
20260510000015 71 260 0.0 0.0 0.00 0.00 0.00 55 1008.3
20260509235515 71 260 0.0 0.0 0.00 0.00 0.00 55 1008.2
20260509234515 71 260 0.0 0.0 0.00 0.00 0.00 55 1008.0
20260509234015 72 260 0.0 0.0 0.00 0.00 0.00 53 1008.0
20260509233515 72 260 0.0 0.0 0.00 0.00 0.00 52 1008.0
20260509233015 73 260 0.0 0.0 0.00 0.00 0.00 50 1008.0
20260509232515 73 260 0.0 0.0 0.00 0.00 0.00 50 1008.1
20260509232016 74 260 0.0 0.0 0.00 0.00 0.00 49 1008.0
20260509231515 74 260 0.0 0.0 0.00 0.00 0.00 47 1008.0
20260509231015 74 260 0.0 0.0 0.00 0.00 0.00 45 1008.0
20260509230515 75 260 0.0 0.0 0.00 0.00 0.00 47 1007.9
20260509230015 75 260 0.0 0.0 0.00 0.00 0.00 45 1007.9
20260509225515 75 260 0.0 0.0 0.00 0.00 0.00 43 1008.0
20260509225015 75 254 0.0 0.0 0.00 0.00 0.00 45 1008.0
20260509224515 76 198 0.0 0.0 0.00 0.00 0.00 45 1007.9
20260509224015 76 199 0.0 0.0 0.00 0.00 0.00 43 1008.0
20260509223515 76 199 0.0 0.0 0.00 0.00 0.00 41 1007.9
20260509223014 76 198 0.0 0.0 0.00 0.00 0.00 41 1007.9
20260509222515 76 195 0.0 0.0 0.00 0.00 0.00 41 1007.9
20260509221015 76 45 0.0 0.0 0.00 0.00 0.00 39 1007.9
20260509220514 76 206 0.0 0.0 0.00 0.00 0.00 39 1007.8
20260509220015 76 235 0.0 0.0 0.00 0.00 0.00 38 1007.8
20260509215515 77 11 0.0 0.0 0.00 0.00 0.00 40 1007.8
20260509215015 77 14 0.0 0.0 0.00 0.00 0.00 39 1007.7
20260509214515 77 26 0.0 0.0 0.00 0.00 0.00 40 1007.8
20260509214015 77 300 0.0 0.0 0.00 0.00 0.00 39 1007.8
20260509213515 77 169 0.0 1.7 0.00 0.00 0.00 39 1007.7
20260509212015 77 264 0.0 2.6 0.00 0.00 0.00 38 1007.6
20260509211515 77 208 0.0 0.0 0.00 0.00 0.00 38 1007.6
20260509211014 77 300 0.0 0.9 0.00 0.00 0.00 41 1007.6
20260509210515 77 62 0.0 0.0 0.00 0.00 0.00 39 1007.7
20260509210015 77 139 0.0 0.9 0.00 0.00 0.00 39 1007.7
20260509205515 77 261 0.0 1.7 0.00 0.00 0.00 39 1007.8
20260509205014 77 268 0.9 6.1 0.00 0.00 0.00 38 1007.7
20260509204515 76 65 0.0 0.0 0.00 0.00 0.00 44 1007.7
20260509204015 76 320 0.0 0.0 0.00 0.00 0.00 42 1007.7
20260509203014 76 191 0.0 0.0 0.00 0.00 0.00 43 1007.8
20260509202015 76 345 0.0 0.9 0.00 0.00 0.00 40 1007.8
20260509201515 75 178 0.0 0.0 0.00 0.00 0.00 42 1007.9
20260509201015 75 312 0.0 0.9 0.00 0.00 0.00 41 1008.1
20260509200514 75 234 0.0 0.9 0.00 0.00 0.00 42 1008.0
20260509200014 75 176 0.0 0.0 0.00 0.00 0.00 41 1008.1
20260509195515 75 147 0.0 0.9 0.00 0.00 0.00 38 1008.1
20260509195015 75 215 0.0 0.9 0.00 0.00 0.00 38 1008.2
20260509194515 76 208 0.0 0.0 0.00 0.00 0.00 39 1008.2
20260509194014 76 139 0.9 5.2 0.00 0.00 0.00 38 1008.3
20260509193515 76 127 0.0 2.6 0.00 0.00 0.00 37 1008.3
20260509192015 77 314 0.0 0.0 0.00 0.00 0.00 36 1008.4
20260509191514 78 87 0.0 0.0 0.00 0.00 0.00 34 1008.4
20260509191015 79 190 0.0 0.9 0.00 0.00 0.00 35 1008.4